Погода в Троицком

Россия / Республика Калмыкия     46°24′56″N   44°15′40″E
темп.,
°C
ветер,
м/с
пор.,
м/с
влажн.,
%
обл.,
%
осадки,
мм/ч
давл.,
гПа
погр.,
м
9 мая, вс
вс900:00+14юв511525 0.0 1012231
03:00+12ююв51263100 0.0 1011276
06:00+13ююв51277100 0.0 1010433
09:00+16ю3367100 0.0 1009501
12:00+19с2357100 0.0 1008869
15:00+17зсз8776100 0.5 1009556
18:00+10сз121689100 1.9 1011660
21:00+8зсз121688100 8.2 1014919
10 мая, пн
пн1000:00+8зсз101589100 3.1 10151082
03:00+7зсз91287100 3.3 1017990
06:00+7зсз101484100 0.1 1017846
09:00+10зсз101364100 0.1 10161455
12:00+11з10125891 0.1 10161639
15:00+10з10136494 0.2 10151461
18:00+9з8127445 0.1 10151238
21:00+8юз61083100 0.3 10151147
11 мая, вт
вт1100:00+7ююз81287100 1.1 10151247
03:00+7ююз81387100 2.6 10161114
06:00+7ю71383100 0.8 10181046
09:00+12ююз7135798 0.9 10181139
12:00+15юв9104572 0.0 10192103
15:00+16юв6843100 0.0 10191706
18:00+16юв574996 0.0 1019321
21:00+13в365666 0.0 1020121
12 мая, ср
ср1200:00+12в34608 0.0 101961
03:00+9юв226796 0.0 101912
06:00+12юв226877 0.0 102041
09:00+16вюв34554 0.0 1019952
12:00+19в444175 0.0 10191487
15:00+20в44365 0.0 10181653
18:00+19всв34442 0.0 1018138
21:00+15ссв335372 0.0 101823
13 мая, чт
чт1300:00+14св33580 0.0 101718
03:00+13св23663 0.0 101714
06:00+15в22680 0.0 101850
09:00+21вюв45500 0.0 1017747
12:00+24вюв44417 0.0 10171278
15:00+25в553936 0.0 10161377
18:00+24вюв3548100 0.0 1016116
21:00+20в335336 0.0 101727